DW1143 Weather Reports


time (UTC)temp
C
wind
direction
speed
KPH
gust
KPH
rain 1hr
cm
rain 24hr
cm
rain mn
cm
humidity
%
barometer
mb
20260508035306 11 105 0.0 0.0 0.00 0.00 0.00 78 1014.3
20260508034803 11 105 0.0 0.0 0.00 0.00 0.00 78 1014.3
20260508034304 11 105 0.0 0.0 0.00 0.00 0.00 78 1014.4
20260508033804 11 105 0.0 0.0 0.00 0.00 0.00 78 1014.4
20260508032804 11 105 1.6 3.2 0.00 0.00 0.00 77 1014.4
20260508032306 11 105 0.0 0.0 0.00 0.00 0.00 77 1014.4
20260508031804 11 105 0.0 4.8 0.00 0.00 0.00 77 1014.4
20260508030804 11 109 1.6 4.8 0.00 0.00 0.00 77 1014.4
20260508030304 11 86 0.0 0.0 0.00 0.00 0.00 76 1014.5
20260508025804 11 86 0.0 0.0 0.00 0.00 0.00 76 1014.5
20260508025306 11 86 0.0 0.0 0.00 0.00 0.00 76 1014.5
20260508024304 11 103 0.0 0.0 0.00 0.00 0.00 75 1014.5
20260508023804 11 103 1.6 3.2 0.00 0.00 0.00 75 1014.6
20260508022804 11 103 0.0 0.0 0.00 0.00 0.00 74 1014.5
20260508022307 11 103 0.0 0.0 0.00 0.00 0.00 74 1014.5
20260508021804 11 103 0.0 0.0 0.00 0.00 0.00 73 1014.5
20260508021303 11 103 0.0 0.0 0.00 0.00 0.00 73 1014.4
20260508020804 11 103 0.0 0.0 0.00 0.00 0.00 73 1014.4
20260508020304 11 103 0.0 0.0 0.00 0.00 0.00 73 1014.4
20260508015804 11 103 0.0 0.0 0.00 0.00 0.00 73 1014.4
20260508015306 11 103 0.0 0.0 0.00 0.00 0.00 73 1014.4
20260508014804 11 103 0.0 0.0 0.00 0.00 0.00 72 1014.4
20260508014304 11 103 0.0 0.0 0.00 0.00 0.00 72 1014.3
20260508012804 11 103 0.0 0.0 0.00 0.00 0.00 72 1014.5
20260508012307 11 103 0.0 0.0 0.00 0.00 0.00 72 1014.5
20260508011804 11 103 0.0 0.0 0.00 0.00 0.00 72 1014.5
20260508011303 12 103 0.0 0.0 0.00 0.00 0.00 72 1014.5
20260508010804 12 103 0.0 0.0 0.00 0.00 0.00 72 1014.5
20260508010304 12 103 0.0 0.0 0.00 0.00 0.00 71 1014.5
20260508005804 12 103 0.0 0.0 0.00 0.00 0.00 72 1014.5
20260508005305 12 103 0.0 0.0 0.00 0.00 0.00 72 1014.5
20260508004804 12 103 0.0 0.0 0.00 0.00 0.00 72 1014.5
20260508004304 12 103 0.0 0.0 0.00 0.00 0.00 72 1014.5
20260508003804 12 103 0.0 0.0 0.00 0.00 0.00 72 1014.5
20260508003304 12 103 0.0 0.0 0.00 0.00 0.00 72 1014.5
20260508002804 12 103 0.0 0.0 0.00 0.00 0.00 72 1014.5
20260508002306 12 102 0.0 0.0 0.00 0.00 0.00 72 1014.5
20260508001804 12 102 0.0 0.0 0.00 0.00 0.00 73 1014.5
20260508001304 12 102 0.0 0.0 0.00 0.00 0.00 73 1014.5
20260508000804 11 102 0.0 0.0 0.00 0.00 0.00 73 1014.5
20260508000305 11 103 0.0 0.0 0.00 0.00 0.00 74 1014.6
20260507235306 11 94 0.0 0.0 0.00 0.00 0.00 76 1014.6
20260507234804 11 94 0.0 0.0 0.00 0.00 0.00 77 1014.6
20260507234304 11 94 0.0 0.0 0.00 0.00 0.00 78 1014.6
20260507233804 11 94 0.0 0.0 0.00 0.00 0.00 78 1014.6
20260507233304 11 94 0.0 0.0 0.00 0.00 0.00 79 1014.6
20260507232803 11 94 0.0 0.0 0.00 0.00 0.00 80 1014.7
20260507232306 11 94 0.0 0.0 0.00 0.00 0.00 81 1014.7
20260507231804 11 94 0.0 0.0 0.00 0.00 0.00 81 1014.6
20260507231304 11 94 0.0 0.0 0.00 0.00 0.00 80 1014.6
20260507230304 11 94 0.0 0.0 0.00 0.00 0.00 80 1014.7
20260507225804 11 94 0.0 1.6 0.00 0.00 0.00 80 1014.7
20260507225306 11 94 0.0 0.0 0.00 0.00 0.00 80 1014.7
20260507224803 12 95 0.0 0.0 0.00 0.00 0.00 79 1014.8
20260507224304 12 95 0.0 0.0 0.00 0.00 0.00 79 1014.7
20260507223804 12 95 0.0 0.0 0.00 0.00 0.00 79 1014.6
20260507223304 12 95 0.0 0.0 0.00 0.00 0.00 78 1014.7
20260507222804 12 95 0.0 0.0 0.00 0.00 0.00 78 1014.7
20260507222306 12 95 0.0 0.0 0.00 0.00 0.00 78 1014.7
20260507221804 12 95 0.0 0.0 0.00 0.00 0.00 78 1014.7
20260507221304 12 95 0.0 0.0 0.00 0.00 0.00 77 1014.7
20260507220804 12 95 0.0 0.0 0.00 0.00 0.00 77 1014.8
20260507220303 12 95 0.0 0.0 0.00 0.00 0.00 77 1014.7
20260507215804 12 95 0.0 0.0 0.00 0.00 0.00 77 1014.7
20260507215306 12 95 0.0 0.0 0.00 0.00 0.00 77 1014.7
20260507214804 12 95 0.0 0.0 0.00 0.00 0.00 76 1014.7
20260507214304 12 95 0.0 0.0 0.00 0.00 0.00 76 1014.8
20260507213304 12 95 0.0 0.0 0.00 0.00 0.00 77 1014.7
20260507212804 12 95 0.0 0.0 0.00 0.00 0.00 77 1014.8
20260507212307 12 95 0.0 0.0 0.00 0.00 0.00 77 1014.8
20260507211804 12 95 0.0 0.0 0.00 0.00 0.00 77 1014.7
20260507211303 12 95 0.0 0.0 0.00 0.00 0.00 78 1014.7
20260507210804 12 95 0.0 0.0 0.00 0.00 0.00 78 1014.6
20260507210304 13 95 0.0 0.0 0.00 0.00 0.00 78 1014.5
20260507205804 13 95 0.0 0.0 0.00 0.00 0.00 78 1014.5
20260507205306 13 95 0.0 0.0 0.00 0.00 0.00 78 1014.5
20260507204804 13 96 0.0 0.0 0.00 0.00 0.00 78 1014.4
20260507203305 13 97 0.0 0.0 0.00 0.00 0.00 78 1014.4
20260507202307 13 97 0.0 3.2 0.00 0.00 0.00 77 1014.3
20260507201305 13 98 0.0 1.6 0.00 0.00 0.00 76 1014.1
20260507200805 13 99 1.6 3.2 0.00 0.00 0.00 76 1014.1
20260507200305 13 99 1.6 4.8 0.00 0.00 0.00 75 1014.0
20260507195805 13 98 0.0 3.2 0.00 0.00 0.00 75 1014.0
20260507195306 13 98 0.0 1.6 0.00 0.00 0.00 74 1014.0
20260507194805 13 98 1.6 3.2 0.00 0.00 0.00 74 1013.9
20260507194305 14 98 0.0 0.0 0.00 0.00 0.00 73 1013.9
20260507193805 14 98 0.0 0.0 0.00 0.00 0.00 73 1013.9
20260507193305 14 98 0.0 1.6 0.00 0.00 0.00 73 1013.9
20260507192805 14 98 0.0 1.6 0.00 0.00 0.00 72 1013.9
20260507192306 14 98 0.0 3.2 0.00 0.00 0.00 71 1013.9
20260507191804 14 98 1.6 3.2 0.00 0.00 0.00 70 1013.8
20260507191305 14 98 1.6 3.2 0.00 0.00 0.00 69 1013.8
20260507190805 15 98 0.0 3.2 0.00 0.00 0.00 69 1013.7
20260507190305 15 108 1.6 3.2 0.00 0.00 0.00 67 1013.7
20260507185805 15 109 0.0 3.2 0.00 0.00 0.00 67 1013.7
20260507185306 15 109 1.6 3.2 0.00 0.00 0.00 67 1013.7
20260507184805 15 133 0.0 3.2 0.00 0.00 0.00 67 1013.8
20260507184306 15 134 0.0 3.2 0.00 0.00 0.00 66 1013.8
20260507183305 15 164 1.6 3.2 0.00 0.00 0.00 65 1013.7
20260507182805 15 171 0.0 1.6 0.00 0.00 0.00 64 1013.8
20260507182307 15 171 0.0 3.2 0.00 0.00 0.00 64 1013.8
20260507181805 15 171 0.0 1.6 0.00 0.00 0.00 64 1013.8
20260507181305 15 171 0.0 1.6 0.00 0.00 0.00 64 1013.7
20260507180805 15 171 1.6 3.2 0.00 0.00 0.00 64 1013.7
20260507180305 15 165 1.6 3.2 0.00 0.00 0.00 64 1013.7
20260507175307 15 254 1.6 3.2 0.00 0.00 0.00 63 1013.6
20260507174805 15 251 1.6 4.8 0.00 0.00 0.00 64 1013.7
20260507174305 15 258 1.6 3.2 0.00 0.00 0.00 64 1013.7
20260507173305 15 262 1.6 3.2 0.00 0.00 0.00 65 1013.7
20260507172805 15 268 3.2 4.8 0.00 0.00 0.00 65 1013.7
20260507172307 15 252 1.6 4.8 0.00 0.00 0.00 65 1013.7
20260507171305 15 254 1.6 4.8 0.00 0.00 0.00 66 1013.7
20260507170305 15 271 3.2 4.8 0.00 0.00 0.00 66 1013.7
20260507165805 15 279 3.2 4.8 0.00 0.00 0.00 67 1013.7
20260507164805 15 283 1.6 4.8 0.00 0.00 0.00 67 1013.7
20260507164305 15 265 3.2 8.0 0.00 0.00 0.00 67 1013.7
20260507163805 16 261 3.2 8.0 0.00 0.00 0.00 65 1013.7
20260507163305 16 262 3.2 4.8 0.00 0.00 0.00 64 1013.6
20260507162804 16 256 3.2 4.8 0.00 0.00 0.00 63 1013.6
20260507162307 16 259 1.6 4.8 0.00 0.00 0.00 62 1013.6
20260507161805 16 273 3.2 4.8 0.00 0.00 0.00 62 1013.6
20260507161306 16 294 3.2 8.0 0.00 0.00 0.00 64 1013.6
20260507160805 16 267 4.8 9.7 0.00 0.00 0.00 63 1013.7
20260507155805 16 269 3.2 4.8 0.00 0.00 0.00 66 1013.7
20260507155306 15 319 3.2 4.8 0.00 0.00 0.00 67 1013.8
20260507154805 15 274 0.0 3.2 0.00 0.00 0.00 68 1013.8
20260507154304 15 277 0.0 4.8 0.00 0.00 0.00 67 1013.8
20260507153805 15 263 0.0 8.0 0.00 0.00 0.00 67 1013.9
20260507153305 15 279 3.2 4.8 0.00 0.00 0.00 67 1013.9
20260507152805 15 304 3.2 4.8 0.00 0.00 0.00 66 1013.9
20260507152306 15 254 1.6 9.7 0.00 0.00 0.00 66 1013.9
20260507151805 15 287 3.2 4.8 0.00 0.00 0.00 67 1013.9
20260507151305 15 267 0.0 0.0 0.00 0.00 0.00 67 1013.9
20260507150805 15 270 0.0 4.8 0.00 0.00 0.00 66 1013.9
20260507150305 15 218 0.0 0.0 0.00 0.00 0.00 66 1013.8
20260507145805 15 229 0.0 0.0 0.00 0.00 0.00 65 1013.8
20260507145307 15 233 0.0 3.2 0.00 0.00 0.00 65 1013.8
20260507144305 15 275 0.0 9.7 0.00 0.00 0.00 65 1013.9
20260507143804 15 245 3.2 9.7 0.00 0.00 0.00 66 1013.9
20260507143305 15 272 0.0 4.8 0.00 0.00 0.00 66 1013.9
20260507142805 15 244 1.6 8.0 0.00 0.00 0.00 66 1014.0
20260507142307 15 284 1.6 4.8 0.00 0.00 0.00 65 1014.0
20260507141805 15 250 0.0 3.2 0.00 0.00 0.00 66 1014.1
20260507141305 15 263 1.6 3.2 0.00 0.00 0.00 67 1014.1
20260507140805 15 265 0.0 3.2 0.00 0.00 0.00 69 1014.2
20260507140305 15 247 0.0 0.0 0.00 0.00 0.00 71 1014.2
20260507135805 14 246 0.0 0.0 0.00 0.00 0.00 70 1014.2
20260507135306 14 272 0.0 0.0 0.00 0.00 0.00 72 1014.2
20260507134305 14 227 0.0 1.6 0.00 0.00 0.00 73 1014.2
20260507133305 14 261 0.0 4.8 0.00 0.00 0.00 73 1014.4
20260507132805 14 267 1.6 4.8 0.00 0.00 0.00 74 1014.4
20260507131804 14 258 1.6 4.8 0.00 0.00 0.00 74 1014.4
20260507131305 14 259 0.0 3.2 0.00 0.00 0.00 72 1014.3
20260507130805 14 272 3.2 4.8 0.00 0.00 0.00 70 1014.3
20260507130305 15 269 1.6 4.8 0.00 0.00 0.00 70 1014.4
20260507125805 15 302 0.0 0.0 0.00 0.00 0.00 70 1014.3
20260507125307 15 305 0.0 0.0 0.00 0.00 0.00 70 1014.3
20260507124805 15 276 0.0 0.0 0.00 0.00 0.00 70 1014.3
20260507124305 15 279 0.0 0.0 0.00 0.00 0.00 70 1014.3
20260507123805 14 278 0.0 0.0 0.00 0.00 0.00 71 1014.4
20260507123305 14 277 0.0 0.0 0.00 0.00 0.00 72 1014.4
20260507122805 14 279 0.0 0.0 0.00 0.00 0.00 72 1014.5
20260507122307 14 271 0.0 0.0 0.00 0.00 0.00 72 1014.5
20260507121805 14 268 0.0 1.6 0.00 0.00 0.00 71 1014.5
20260507121304 14 254 0.0 1.6 0.00 0.00 0.00 71 1014.5
20260507120805 14 293 1.6 4.8 0.00 0.00 0.00 71 1014.4
20260507120305 14 273 0.0 4.8 0.00 0.00 0.00 70 1014.4
20260507115805 15 261 0.0 3.2 0.00 0.00 0.00 70 1014.5
20260507115307 15 264 1.6 8.0 0.00 0.00 0.00 70 1014.5
20260507114805 15 272 0.0 0.0 0.00 0.00 0.00 70 1014.5
20260507114305 15 271 0.0 0.0 0.00 0.00 0.00 69 1014.5
20260507113805 15 264 1.6 8.0 0.00 0.00 0.00 69 1014.4
20260507113305 15 266 1.6 3.2 0.00 0.00 0.00 65 1014.4
20260507112307 15 268 0.0 4.8 0.00 0.00 0.00 66 1014.4
20260507111805 15 267 3.2 8.0 0.00 0.00 0.00 66 1014.5
20260507111305 15 249 0.0 4.8 0.00 0.00 0.00 65 1014.6
20260507110805 15 277 4.8 8.0 0.00 0.00 0.00 66 1014.5
20260507110305 15 252 3.2 9.7 0.00 0.00 0.00 64 1014.5
20260507105805 16 274 3.2 8.0 0.00 0.00 0.00 63 1014.6
20260507105306 16 264 3.2 8.0 0.00 0.00 0.00 60 1014.6
20260507104805 16 96 1.6 8.0 0.00 0.00 0.00 60 1014.6
20260507104305 16 261 0.0 8.0 0.00 0.00 0.00 61 1014.7
20260507103305 15 95 3.2 14.5 0.00 0.00 0.00 66 1014.7
20260507102805 15 258 1.6 9.7 0.00 0.00 0.00 71 1014.7
20260507101805 15 262 0.0 3.2 0.00 0.00 0.00 70 1014.8
20260507101304 15 263 3.2 8.0 0.00 0.00 0.00 70 1014.8
20260507100805 15 252 1.6 9.7 0.00 0.00 0.00 68 1014.8
20260507100304 16 244 1.6 9.7 0.00 0.00 0.00 69 1014.7
20260507095805 15 314 1.6 9.7 0.00 0.00 0.00 69 1014.8
20260507095306 15 297 0.0 0.0 0.00 0.00 0.00 70 1014.8
20260507094805 15 266 0.0 0.0 0.00 0.00 0.00 71 1014.8
20260507094305 14 100 0.0 0.0 0.00 0.00 0.00 70 1014.8
20260507093305 14 248 0.0 0.0 0.00 0.00 0.00 71 1014.7
20260507091805 13 189 0.0 0.0 0.00 0.00 0.00 74 1014.9
20260507091305 13 115 0.0 0.0 0.00 0.00 0.00 74 1015.0
20260507090304 13 95 0.0 0.0 0.00 0.00 0.00 75 1014.9
20260507085805 13 41 0.0 1.6 0.00 0.00 0.00 76 1015.0
20260507083805 12 65 0.0 0.0 0.00 0.00 0.00 78 1015.0
20260507083305 12 115 0.0 8.0 0.00 0.00 0.00 78 1014.9
20260507082805 12 85 1.6 4.8 0.00 0.00 0.00 78 1014.9
20260507082306 11 114 0.0 3.2 0.00 0.00 0.00 78 1014.9
20260507081805 11 94 1.6 4.8 0.00 0.00 0.00 78 1015.0
20260507081304 11 105 0.0 0.0 0.00 0.00 0.00 79 1015.0
20260507080805 11 76 0.0 3.2 0.00 0.00 0.00 79 1015.0
20260507075805 11 49 0.0 4.8 0.00 0.00 0.00 80 1015.0
20260507075307 10 87 0.0 0.0 0.00 0.00 0.00 80 1015.1
20260507074804 10 102 0.0 0.0 0.00 0.00 0.00 80 1015.0
20260507074304 10 72 0.0 1.6 0.00 0.00 0.00 81 1015.0
20260507073805 10 83 1.6 9.7 0.00 0.00 0.00 81 1015.0
20260507073305 10 84 3.2 8.0 0.00 0.00 0.00 82 1015.0
20260507072307 10 105 0.0 8.0 0.00 0.00 0.00 82 1014.9
20260507071805 10 104 3.2 4.8 0.00 0.00 0.00 82 1014.9
20260507071305 10 68 1.6 8.0 0.00 0.00 0.00 83 1014.8
20260507070804 9 98 1.6 9.7 0.00 0.00 0.00 83 1014.8
20260507065805 9 79 0.0 0.0 0.00 0.00 0.00 83 1014.8
20260507065306 9 98 0.0 0.0 0.00 0.00 0.00 83 1014.8
20260507064805 9 87 0.0 0.0 0.00 0.00 0.00 83 1014.8
20260507064304 9 98 0.0 0.0 0.00 0.00 0.00 83 1014.8
20260507063805 8 107 0.0 0.0 0.00 0.00 0.00 83 1014.8
20260507063305 8 92 0.0 0.0 0.00 0.00 0.00 83 1014.7
20260507062805 8 93 0.0 4.8 0.00 0.00 0.00 83 1014.7
20260507062306 8 72 0.0 4.8 0.00 0.00 0.00 83 1014.7
20260507061804 8 84 1.6 11.3 0.00 0.00 0.00 83 1014.6
20260507061305 8 94 0.0 4.8 0.00 0.00 0.00 83 1014.6
20260507060305 8 86 1.6 4.8 0.00 0.00 0.00 83 1014.7
20260507055805 8 51 0.0 4.8 0.00 0.00 0.00 83 1014.6
20260507054805 8 94 1.6 9.7 0.00 0.00 0.00 82 1014.5
20260507054304 8 87 0.0 4.8 0.00 0.00 0.00 82 1014.5
20260507053805 8 85 0.0 4.8 0.00 0.00 0.00 82 1014.5
20260507053304 8 76 0.0 4.8 0.00 0.00 0.00 82 1014.5
20260507052805 8 111 3.2 9.7 0.00 0.00 0.00 82 1014.4
20260507052306 8 93 0.0 9.7 0.00 0.00 0.00 82 1014.4
20260507051805 8 94 0.0 0.0 0.00 0.00 0.00 82 1014.5
20260507051305 8 94 0.0 4.8 0.00 0.00 0.00 82 1014.5
20260507050805 8 96 4.8 9.7 0.00 0.00 0.00 82 1014.4
20260507050305 8 112 0.0 4.8 0.00 0.00 0.00 82 1014.4
20260507045804 8 115 0.0 8.0 0.00 0.00 0.00 82 1014.5
20260507045306 8 95 1.6 4.8 0.00 0.00 0.00 81 1014.5
20260507044805 8 91 0.0 0.0 0.00 0.00 0.00 81 1014.4
20260507043805 8 98 1.6 9.7 0.00 0.00 0.00 81 1014.3
20260507043305 8 101 0.0 0.0 0.00 0.00 0.00 81 1014.3
20260507042805 8 108 0.0 0.0 0.00 0.00 0.00 81 1014.3
20260507042307 9 92 0.0 0.0 0.00 0.00 0.00 80 1014.3
20260507040304 9 91 0.0 4.8 0.00 0.00 0.00 80 1014.4